Weather observations for the past three days for
Pope Army Airfield
Imperial (Metric)
Date Time (edt) Wind (mph) Vis. (mi.) Weather Sky Cond. Temperature (ºF) Relative Humidity Wind Chill (°F) Heat Index (°F) Pressure Precipitation (in)
Air Dwpt 6 hour altimeter (in) sea level (mb) 1 hr 3 hr 6 hr
Max. Min.
05 00:55 E 5 10.00 A Few Clouds FEW027 80.4 70.5 72% 84 29.95 1014.2
04 23:55 E 12 10.00 Mostly Cloudy BKN023 BKN065 83.7 73.6 72% 90 29.97 1014.8
04 22:55 S 12 10.00 A Few Clouds FEW160 85.6 74.7 70% 94 29.93 1013.5
04 21:55 S 6 10.00 A Few Clouds FEW150 88.3 72.7 60% 96 29.94 1013.8
04 20:55 S 9 10.00 Fair CLR 89.1 73.2 60% 97 29.91 1012.8
04 19:55 SW 7 10.00 A Few Clouds FEW150 88.5 75.2 96.4 88.5 65% 99 29.91 1012.9
04 18:55 SW 8 10.00 Fair CLR 92.7 72.3 52% 101 29.9 1012.5
04 17:55 SW 12 10.00 Fair CLR 94.6 73 50% 104 29.91 1012.8
04 16:55 S 9 10.00 Fair CLR 95.7 73.4 49% 106 29.89 1012.1
04 15:55 SW 9 10.00 Fair CLR 96.4 74.1 49% 108 29.93 1013.5
04 14:55 S 6 10.00 A Few Clouds FEW042 95.5 74.5 51% 107 29.96 1014.5
04 13:55 S 8 10.00 Partly Cloudy SCT040 94.5 75.2 94.5 78.3 54% 107 29.98 1015.2
04 12:55 S 6 10.00 A Few Clouds FEW039 93 73.8 54% 103 30 1015.9
04 11:55 S 9 10.00 Fair CLR 91.8 74.8 58% 103 30.01 1016.2
04 10:55 SW 3 10.00 Fair CLR 88.3 74.1 63% 97 30.03 1016.9
04 09:55 SW 8 10.00 Fair CLR 86.5 74.7 68% 95 30.02 1016.6
04 08:55 SW 10 10.00 Fair CLR 82.6 77.2 84% 91 30.02 1016.6
04 07:55 SW 7 10.00 Fair CLR 78.1 77.2 79 76.6 97% 81 30.02 1016.6
04 06:55 SW 3 10.00 Fair CLR 77 76.1 97% 78 30.02 1016.6
04 05:55 SW 5 10.00 Fair CLR 77.4 76.5 97% 79 30 1015.9
04 04:55 SW 7 10.00 Fair CLR 77.2 76.3 97% 78 29.99 1015.5
04 03:55 SW 6 10.00 Fair CLR 77.5 76.6 97% 79 29.99 1015.5
04 02:55 SW 7 10.00 Fair CLR 78.1 76.8 96% 81 30 1015.9
04 01:55 SW 6 10.00 Fair CLR 79 76.1 90.3 79 91% 83 30.02 1016.6
04 00:55 SW 7 10.00 Fair CLR 81 74.5 81% 86 30.02 1016.5
03 23:55 S 8 10.00 Fair CLR 82.2 73.4 75% 88 30.02 1016.5
03 22:55 S 7 10.00 Fair CLR 83.8 72.1 68% 90 30.03 1016.9
03 21:55 S 7 10.00 Fair CLR 86 71.4 62% 92 30.02 1016.5
03 20:55 S 9 10.00 Fair CLR 88 72.7 61% 95 30 1015.9
03 19:55 S 6 10.00 Fair CLR 90.1 73.8 97.7 90.1 59% 99 29.97 1014.9
03 18:55 S 6 10.00 Fair CLR 93 72.1 51% 101 29.97 1014.9
03 17:55 S 8 10.00 Fair CLR 95.7 71.6 46% 104 29.97 1014.9
03 16:55 S 5 10.00 A Few Clouds FEW055 95.9 72.3 47% 105 29.96 1014.5
03 15:55 SW 3 10.00 Partly Cloudy SCT055 97.5 71.2 43% 106 29.98 1015.2
03 14:55 S 8 10.00 Fair CLR 96.4 71.6 45% 105 30 1015.9
03 13:55 SE 6 10.00 Fair CLR 95 71.4 97.2 79.7 46% 103 30.01 1016.2
03 12:55 Calm 10.00 Fair CLR 95.2 72.9 49% 105 30.03 1016.9
03 11:55 Calm 10.00 Fair CLR 93.2 74.5 55% 104 30.04 1017.2
03 10:55 Calm 10.00 Fair CLR 90.7 75.2 61% 102 30.04 1017.2
03 09:55 W 5 10.00 Fair CLR 87.6 73.8 64% 96 30.04 1017.2
03 08:55 SW 5 10.00 Fair CLR 83.8 73.8 72% 91 30.05 1017.6
03 07:55 SW 3 10.00 Fair CLR 79.5 75.6 82.6 77.5 88% 84 30.05 1017.6
03 06:55 SW 5 10.00 Fair CLR 77.5 75.9 95% 79 30.04 1017.2
03 05:55 SW 5 10.00 Fair CLR 78.3 75.7 92% 81 30.02 1016.5
03 04:55 SW 3 10.00 Fair CLR 79.2 75.9 90% 83 30.02 1016.5
03 03:55 S 5 10.00 Fair CLR 80.6 74.8 83% 86 30.01 1016.2
03 02:55 S 3 10.00 Fair CLR 81.7 74.5 79% 88 30.01 1016.2
03 00:55 S 5 10.00 Fair CLR 83.7 75.2 76% 92 30.02 1016.5
02 23:55 S 7 10.00 Fair CLR 85.1 76.3 75% 95 30.01 1016.2
02 22:55 S 9 10.00 Fair CLR 86.9 75.4 69% 97 30 1015.9
02 21:55 Calm 10.00 A Few Clouds FEW100 83.5 78.8 86% 95 30.02 1016.6
02 20:55 N 3 10.00 Fair CLR 83.7 77.9 83% 94 30.02 1016.6
02 19:55 Calm 10.00 Fair CLR 90.3 73.9 98.8 90.3 59% 100 30 1015.9
02 18:55 E 3 10.00 Fair CLR 93.7 72.9 51% 103 29.99 1015.5
02 17:55 Calm 10.00 Fair CLR 97.3 69.6 41% 104 29.99 1015.5
02 16:55 E 5 10.00 Fair CLR 98.6 67.6 37% 104 30 1015.9
02 15:55 NE 5 10.00 Fair CLR 98.1 68 38% 103 30.01 1016.2
02 14:55 Calm 10.00 Fair CLR 96.6 67.5 39% 101 30.02 1016.5
02 13:55 N 5 10.00 Fair CLR 97.2 68.7 97.2 78.4 40% 103 30.03 1016.9
02 12:55 N 3 10.00 Fair CLR 94.6 71.8 48% 103 30.05 1017.6
02 11:55 Calm 10.00 Fair CLR 92.3 73.8 55% 102 30.06 1017.9
02 10:55 Calm 10.00 Fair CLR 90.1 74.3 60% 100 30.05 1017.6
02 09:55 Calm 10.00 Fair CLR 85.5 76.1 74% 95 30.05 1017.6
02 08:55 Calm 10.00 Fair CLR 81.5 76.1 84% 88 30.05 1017.6
02 07:55 W 3 10.00 Fair CLR 78.4 76.8 80.1 76.5 95% 82 30.06 1017.9
02 06:55 SW 3 10.00 Fair CLR 77 76.1 97% 78 30.05 1017.6
02 05:55 SW 6 10.00 Fair CLR 77.4 75.7 95% 79 30.04 1017.2
02 04:55 SW 5 10.00 Fair CLR 77.9 75.9 94% 80 30.04 1017.2
02 03:55 SW 6 10.00 Fair CLR 78.3 75.9 93% 81 30.04 1017.2
02 02:55 SW 7 10.00 Fair CLR 79.2 75.2 88% 83 30.04 1017.2
02 01:55 SW 7 10.00 Fair CLR 79.9 74.8 90.1 79.9 85% 85 30.05 1017.6
Date Time (edt) Wind (mph) Vis. (mi.) Weather Sky Cond. Air Dwpt Max. Min. Relative Humidity Wind Chill (°F) Heat Index (°F) altimeter (in) sea level (mb) 1 hr 3 hr 6 hr
6 hour
Temperature (ºF) Pressure Precipitation (in)